Weather History for YSRI - December, 2013

Change the Weather History Date:

Wednesday, December 25, 2013

  Actual Average (YSSY) Record (YSSY)
Temperature  
Mean Temperature 63 °F -  
Max Temperature 66 °F 85 °F 100 °F (2003)
Min Temperature 60 °F 64 °F 60 °F (2006)
Degree Days  
Heating Degree Days 2    
Growing Degree Days 13 (Base 50)    
Moisture  
Dew Point 63 °F    
Average Humidity 97    
Maximum Humidity 100    
Minimum Humidity 83    
Precipitation  
Precipitation 0.00 in 0.13 in - ()
Sea Level Pressure  
Sea Level Pressure 30.01 in    
Wind  
Wind Speed 2 mph ()    
Max Wind Speed 8 mph    
Max Gust Speed -    
Visibility 5.3 miles    
Events Rain    
Averages and records for this station are not official NWS values.
T = Trace of Precipitation, MM = Missing Value Source: Averaged Metar Reports

Daily Weather History Graph

Daily Weather History Graph

Search for Another Location

Airport or City:

Trip Planner

Search our weather history database for the weather conditions in past years. The results will help you decide how hot, cold, wet, or windy it might be!

Date:

Astronomy

Dec. 25, 2013 Rise Set
Actual Time 5:45 AM AEDT 8:08 PM AEDT
Civil Twilight 5:16 AM AEDT 8:37 PM AEDT
Nautical Twilight 4:40 AM AEDT 9:13 PM AEDT
Astronomical Twilight 4:01 AM AEDT 9:51 PM AEDT
Moon 12:06 AM AEDT (12/25) 12:32 PM AEDT (12/25)
Length of Visible Light 15h 21m
Length of Day
14h 23m
Waning Gibbous, 55% of the Moon is Illuminated
Dec 25
Waning Gibbous
Dec 26
Last Quarter
Jan 1
New
Jan 8
First Quarter
Jan 16
Full

Hourly Weather History & Observations

Time (AEDT) Temp. Dew Point Humidity Pressure Visibility Wind Dir Wind Speed Gust Speed Precip Events Conditions
12:00 AM 60.8 °F 60.8 °F 100% 30.12 in 6.2 mi WSW 5.8 mph - N/A   Overcast
12:30 AM 60.8 °F 60.8 °F 100% 30.09 in 6.2 mi WSW 4.6 mph - N/A   Overcast
1:00 AM 60.8 °F 60.8 °F 100% 30.09 in 6.2 mi WSW 1.2 mph - N/A   Overcast
1:30 AM 60.8 °F 60.8 °F 100% 30.09 in 6.2 mi Calm Calm - N/A   Overcast
2:00 AM 62.6 °F 60.8 °F 94% 30.09 in 6.2 mi Calm Calm - N/A   Overcast
2:30 AM 62.6 °F 60.8 °F 94% 30.06 in 6.2 mi ESE 3.5 mph - N/A   Overcast
3:00 AM 62.6 °F 60.8 °F 94% 30.06 in 6.2 mi Calm Calm - N/A   Overcast
3:12 AM 62.6 °F 60.8 °F 94% 30.06 in 3.7 mi Calm Calm - N/A   Overcast
3:28 AM 60.8 °F 59.0 °F 94% 30.06 in 6.2 mi Calm Calm - N/A   Overcast
3:30 AM 62.6 °F 60.8 °F 94% 30.06 in 6.2 mi Calm Calm - N/A   Overcast
4:00 AM 62.6 °F 60.8 °F 94% 30.06 in 6.2 mi Calm Calm - N/A   Overcast
4:30 AM 62.6 °F 60.8 °F 94% 30.06 in 6.2 mi SW 1.2 mph - N/A   Overcast
5:00 AM 60.8 °F 60.8 °F 100% 30.04 in 6.2 mi SW 1.2 mph - N/A   Overcast
5:30 AM 60.8 °F 60.8 °F 100% 30.06 in 6.2 mi Calm Calm - N/A   Overcast
6:00 AM 60.8 °F 60.8 °F 100% 30.06 in 6.2 mi Calm Calm - N/A   Overcast
6:30 AM 60.8 °F 60.8 °F 100% 30.06 in 6.2 mi Calm Calm - N/A   Overcast
7:00 AM 62.6 °F 60.8 °F 94% 30.06 in 6.2 mi Calm Calm - N/A   Overcast
7:30 AM 62.6 °F 60.8 °F 94% 30.09 in 6.2 mi Calm Calm - N/A   Overcast
8:00 AM 62.6 °F 60.8 °F 94% 30.09 in 6.2 mi Calm Calm - N/A   Overcast
8:30 AM 62.6 °F 60.8 °F 94% 30.09 in 6.2 mi Calm Calm - N/A   Overcast
9:00 AM 62.6 °F 60.8 °F 94% 30.09 in 6.2 mi Calm Calm - N/A   Light Drizzle
9:30 AM 64.4 °F 60.8 °F 88% 30.09 in 6.2 mi Calm Calm - N/A Rain Light Rain Showers
10:00 AM 64.4 °F 60.8 °F 88% 30.09 in 6.2 mi Calm Calm - N/A Rain Light Rain Showers
10:30 AM 64.4 °F 60.8 °F 88% 30.06 in 6.2 mi Calm Calm - N/A   Overcast
11:00 AM 66.2 °F 60.8 °F 83% 30.06 in 6.2 mi Calm Calm - N/A Rain Light Rain Showers
11:30 AM 66.2 °F 62.6 °F 88% 30.06 in 6.2 mi Calm Calm - N/A Rain Light Rain Showers
12:00 PM 66.2 °F 62.6 °F 88% 30.06 in 6.2 mi Calm Calm - N/A Rain Light Rain
12:11 PM 66.2 °F 62.6 °F 88% 30.06 in 6.2 mi Calm Calm - N/A Rain Light Rain
12:30 PM 66.2 °F 62.6 °F 88% 30.06 in 6.2 mi Calm Calm - N/A Rain Light Rain
1:00 PM 66.2 °F 64.4 °F 94% 30.04 in 6.2 mi SE 1.2 mph - N/A Rain Light Rain
1:28 PM 64.4 °F 64.4 °F 100% 30.04 in 6.2 mi SE 4.6 mph - N/A Rain Light Rain
1:30 PM 66.2 °F 64.4 °F 94% 30.04 in 6.2 mi SE 4.6 mph - N/A Rain Light Rain
2:00 PM 66.2 °F 64.4 °F 94% 30.01 in 6.2 mi SE 1.2 mph - N/A   Light Drizzle
2:19 PM 66.2 °F 64.4 °F 94% 30.01 in 6.2 mi SSE 4.6 mph - N/A Rain Light Rain
2:30 PM 66.2 °F 66.2 °F 100% 30.01 in 6.2 mi SSE 3.5 mph - N/A Rain Light Rain
3:00 PM 66.2 °F 66.2 °F 100% 30.01 in 5.6 mi Calm Calm - N/A Rain Light Rain
3:30 PM 66.2 °F 66.2 °F 100% 29.98 in 4.3 mi Calm Calm - N/A Rain Light Rain
4:00 PM 66.2 °F 66.2 °F 100% 29.98 in 5.0 mi ENE 6.9 mph - N/A Rain Light Rain
4:26 PM 66.2 °F 66.2 °F 100% 29.95 in 3.7 mi ENE 4.6 mph - N/A Rain Rain
4:30 PM 66.2 °F 66.2 °F 100% 29.95 in 3.7 mi ENE 4.6 mph - N/A Rain Rain
4:34 PM 66.2 °F 66.2 °F 100% 29.95 in 4.3 mi NE 5.8 mph - N/A Rain Rain
5:00 PM 66.2 °F 66.2 °F 100% 29.95 in 6.2 mi East 6.9 mph - N/A Rain Light Rain
5:30 PM 66.2 °F 66.2 °F 100% 29.92 in 4.3 mi East 5.8 mph - N/A Rain Rain Showers
6:00 PM 66.2 °F 66.2 °F 100% 29.92 in 4.3 mi East 5.8 mph - N/A Rain Rain Showers
6:01 PM 66.2 °F 66.2 °F 100% 29.92 in 3.7 mi East 5.8 mph - N/A Rain Rain Showers
6:30 PM 66.2 °F 66.2 °F 100% 29.92 in 3.7 mi East 4.6 mph - N/A Rain Heavy Rain
6:59 PM 64.4 °F 64.4 °F 100% 29.92 in 3.7 mi East 4.6 mph - N/A Rain Rain
7:00 PM 64.4 °F 64.4 °F 100% 29.92 in 3.7 mi East 4.6 mph - N/A Rain Heavy Rain
7:23 PM 64.4 °F 64.4 °F 100% 29.92 in 3.1 mi ESE 6.9 mph - N/A Rain Heavy Rain
7:30 PM 64.4 °F 64.4 °F 100% 29.92 in 3.1 mi ESE 8.1 mph - N/A Rain Heavy Rain
7:59 PM 64.4 °F 64.4 °F 100% 29.95 in 3.7 mi ESE 6.9 mph - N/A Rain Rain
8:00 PM 64.4 °F 64.4 °F 100% 29.95 in 3.7 mi ESE 6.9 mph - N/A Rain Rain
8:30 PM 64.4 °F 64.4 °F 100% 29.95 in 3.1 mi SSE 5.8 mph - N/A   Overcast
8:58 PM 64.4 °F 64.4 °F 100% 29.95 in 3.7 mi SSE 4.6 mph - N/A Rain Rain
9:00 PM 64.4 °F 64.4 °F 100% 29.95 in 3.7 mi SSE 4.6 mph - N/A Rain Rain
9:17 PM 64.4 °F 64.4 °F 100% 29.92 in 5.6 mi SE 6.9 mph - N/A Rain Rain
9:30 PM 64.4 °F 64.4 °F 100% 29.92 in 6.2 mi SE 6.9 mph - N/A Rain Rain
10:00 PM 64.4 °F 64.4 °F 100% 29.92 in 6.2 mi SE 5.8 mph - N/A Rain Light Rain
10:26 PM 64.4 °F 64.4 °F 100% 29.92 in 6.2 mi SSE 1.2 mph - N/A   Drizzle
10:30 PM 64.4 °F 64.4 °F 100% 29.92 in 6.2 mi Calm Calm - N/A   Light Drizzle
10:57 PM 64.4 °F 64.4 °F 100% 29.92 in 3.7 mi South 1.2 mph - N/A Rain Light Rain
11:00 PM 64.4 °F 64.4 °F 100% 29.92 in 3.7 mi SW 2.3 mph - N/A Rain Light Rain
11:30 PM 64.4 °F 64.4 °F 100% 29.89 in 3.1 mi WSW 3.5 mph - N/A   Light Drizzle
11:50 PM 64.4 °F 64.4 °F 100% 29.89 in 5.0 mi SW 4.6 mph - N/A   Drizzle